Location: Caltech
(34.1382°N, 118.1253°W)
Time: 16:46:51
(UTC-07:00)

Cosmos 1937 Rocket - Visible Passes

Search period start: 29 March 2015 00:00
Search period end: 08 April 2015 00:00
Orbit: 748 x 781 km, 74.1° (Epoch: 28 March)

Date Brightness Start Highest point End Pass type
(mag) Time Alt. Az. Time Alt. Az. Time Alt. Az.
29 Mar 6.0 22:08:47 10° N 22:09:25 13° N 22:09:25 13° N visible
30 Mar 5.8 21:31:33 10° NNE 21:32:13 12° NNE 21:32:13 12° NNE visible
30 Mar 6.5 23:12:12 10° NNW 23:12:25 11° NNW 23:12:25 11° NNW visible
31 Mar 5.9 22:33:55 10° NNW 22:35:15 18° NNW 22:35:15 18° NNW visible
01 Apr 5.3 21:55:57 10° N 21:58:07 24° N 21:58:07 24° N visible
02 Apr 5.1 21:18:19 10° N 21:21:01 23° NE 21:21:01 23° NE visible
02 Apr 6.2 23:00:08 10° NW 23:01:13 15° NW 23:01:13 15° NW visible
03 Apr 5.3 20:41:16 10° NNE 20:43:57 15° NE 20:43:57 15° NE visible
03 Apr 5.3 22:21:32 10° NNW 22:24:10 29° NW 22:24:10 29° NW visible
04 Apr 4.2 21:43:19 10° NNW 21:47:10 48° N 21:47:10 48° N visible
05 Apr 4.0 21:05:25 10° N 21:10:12 43° ENE 21:10:12 43° ENE visible
05 Apr 6.0 22:48:28 10° NW 22:50:25 16° WNW 22:50:25 16° WNW visible
06 Apr 4.7 20:27:52 10° N 20:32:05 24° ENE 20:33:18 23° E visible
06 Apr 5.0 22:09:23 10° NW 22:13:31 33° W 22:13:31 33° W visible
07 Apr 5.4 19:51:03 10° NNE 19:53:35 14° ENE 19:56:24 10° E visible
07 Apr 3.8 21:30:54 10° NNW 21:36:09 64° WSW 21:36:41 60° SW visible
